Location: Middle Street
(51.7167°N, 0.0333°E)
Time: 03:01:08
(UTC+00:00)

CZ-4 R/B - Pass Details

Date: 20 January 2021
Orbit: 530 x 599 km, 97.7° (Epoch: 24 February)

Event Time Altitude Azimuth Distance (km) Brightness Sun altitude
Rises 19:27:41 0° 200° (SSW) 2,799 5.1 -27.3°
Reaches altitude 10° 19:30:15 10° 216° (SW) 1,893 4.4 -27.7°
Maximum altitude 19:33:27 22° 267° (W) 1,286 3.9 -28.2°
Drops below altitude 10° 19:36:38 10° 319° (NW) 1,873 4.5 -28.7°
Sets 19:39:10 0° 335° (NNW) 2,762 5.3 -29.1°
